| time (UTC) | temp F | wind direction | speed knots | gust knots | rain 1hr in | rain 24hr in | rain mn in | humidity % | barometer mb |
| 20260507150020 | 63 | 21 | 8.7 | 16.5 | 0.00 | 0.00 | 0.00 | 79 | 1006.9 |
| 20260507145530 | 63 | 24 | 9.6 | 16.5 | 0.00 | 0.00 | 0.00 | 78 | 1006.9 |
| 20260507145017 | 63 | 360 | 7.8 | 14.8 | 0.00 | 0.00 | 0.00 | 78 | 1006.9 |
| 20260507144526 | 63 | 144 | 7.0 | 14.8 | 0.00 | 0.00 | 0.00 | 79 | 1006.9 |
| 20260507144014 | 62 | 46 | 5.2 | 13.9 | 0.00 | 0.00 | 0.00 | 80 | 1007.0 |
| 20260507143522 | 62 | 48 | 7.0 | 15.6 | 0.00 | 0.00 | 0.00 | 81 | 1006.9 |
| 20260507143010 | 62 | 67 | 8.7 | 15.6 | 0.00 | 0.00 | 0.00 | 80 | 1006.8 |
| 20260507142519 | 61 | 47 | 9.6 | 14.8 | 0.00 | 0.00 | 0.00 | 78 | 1006.9 |
| 20260507142027 | 61 | 49 | 10.4 | 13.9 | 0.00 | 0.00 | 0.00 | 77 | 1007.0 |
| 20260507141515 | 61 | 29 | 9.6 | 15.6 | 0.00 | 0.00 | 0.00 | 77 | 1007.2 |
| 20260507141044 | 61 | 24 | 9.6 | 15.6 | 0.00 | 0.00 | 0.00 | 77 | 1007.2 |
| 20260507140531 | 61 | 39 | 9.6 | 13.9 | 0.00 | 0.00 | 0.00 | 77 | 1007.3 |
| 20260507140017 | 61 | 51 | 8.7 | 14.8 | 0.00 | 0.00 | 0.00 | 77 | 1007.3 |
| 20260507135526 | 61 | 44 | 9.6 | 15.6 | 0.00 | 0.00 | 0.00 | 76 | 1007.3 |
| 20260507135014 | 62 | 34 | 10.4 | 17.4 | 0.00 | 0.00 | 0.00 | 76 | 1007.4 |
| 20260507134522 | 62 | 15 | 9.6 | 15.6 | 0.00 | 0.00 | 0.00 | 76 | 1007.4 |
| 20260507134010 | 62 | 51 | 8.7 | 15.6 | 0.00 | 0.00 | 0.00 | 76 | 1007.3 |
| 20260507133519 | 62 | 42 | 10.4 | 16.5 | 0.00 | 0.00 | 0.00 | 75 | 1007.3 |
| 20260507133026 | 62 | 9 | 11.3 | 16.5 | 0.00 | 0.00 | 0.00 | 74 | 1007.3 |
| 20260507132515 | 62 | 67 | 7.8 | 16.5 | 0.00 | 0.00 | 0.00 | 76 | 1007.5 |
| 20260507132023 | 62 | 28 | 10.4 | 16.5 | 0.00 | 0.00 | 0.00 | 76 | 1007.6 |
| 20260507131531 | 62 | 68 | 9.6 | 15.6 | 0.00 | 0.00 | 0.00 | 75 | 1007.6 |
| 20260507131037 | 62 | 74 | 10.4 | 16.5 | 0.00 | 0.00 | 0.00 | 74 | 1007.6 |
| 20260507130524 | 63 | 55 | 8.7 | 16.5 | 0.00 | 0.00 | 0.00 | 75 | 1007.6 |
| 20260507130033 | 63 | 28 | 5.2 | 15.6 | 0.00 | 0.00 | 0.00 | 76 | 1007.6 |
| 20260507125541 | 62 | 62 | 7.8 | 16.5 | 0.00 | 0.00 | 0.00 | 76 | 1007.5 |
| 20260507125028 | 62 | 22 | 10.4 | 16.5 | 0.00 | 0.00 | 0.00 | 75 | 1007.5 |
| 20260507124516 | 62 | 32 | 9.6 | 16.5 | 0.00 | 0.00 | 0.00 | 76 | 1007.7 |
| 20260507124023 | 62 | 61 | 7.8 | 18.2 | 0.00 | 0.00 | 0.00 | 76 | 1008.1 |
| 20260507123512 | 62 | 59 | 11.3 | 18.2 | 0.00 | 0.00 | 0.00 | 74 | 1008.2 |
| 20260507123017 | 62 | 5 | 10.4 | 16.5 | 0.00 | 0.00 | 0.00 | 75 | 1008.3 |
| 20260507122546 | 62 | 53 | 8.7 | 15.6 | 0.00 | 0.00 | 0.00 | 77 | 1008.3 |
| 20260507122014 | 61 | 31 | 9.6 | 15.6 | 0.00 | 0.00 | 0.00 | 77 | 1008.4 |
| 20260507121522 | 61 | 15 | 11.3 | 15.6 | 0.00 | 0.00 | 0.00 | 77 | 1008.5 |
| 20260507121010 | 61 | 56 | 10.4 | 15.6 | 0.00 | 0.00 | 0.00 | 77 | 1008.6 |
| 20260507120518 | 61 | 55 | 10.4 | 17.4 | 0.00 | 0.00 | 0.00 | 77 | 1008.6 |
| 20260507120025 | 61 | 38 | 11.3 | 17.4 | 0.00 | 0.00 | 0.00 | 76 | 1008.6 |
| 20260507115514 | 61 | 40 | 10.4 | 17.4 | 0.00 | 0.00 | 0.00 | 76 | 1008.6 |
| 20260507115022 | 61 | 56 | 11.3 | 16.5 | 0.00 | 0.00 | 0.00 | 77 | 1008.6 |
| 20260507114510 | 61 | 55 | 5.2 | 15.6 | 0.00 | 0.00 | 0.00 | 79 | 1008.7 |
| 20260507114019 | 61 | 36 | 9.6 | 16.5 | 0.00 | 0.00 | 0.00 | 78 | 1008.5 |
| 20260507113527 | 61 | 43 | 11.3 | 16.5 | 0.00 | 0.00 | 0.00 | 77 | 1008.5 |
| 20260507113015 | 61 | 24 | 9.6 | 16.5 | 0.00 | 0.00 | 0.00 | 79 | 1008.5 |
| 20260507112523 | 61 | 39 | 7.0 | 15.6 | 0.00 | 0.00 | 0.00 | 80 | 1008.6 |
| 20260507112011 | 61 | 56 | 10.4 | 15.6 | 0.00 | 0.00 | 0.00 | 79 | 1008.6 |
| 20260507111540 | 61 | 71 | 9.6 | 15.6 | 0.00 | 0.00 | 0.00 | 78 | 1008.7 |
| 20260507111028 | 61 | 96 | 10.4 | 15.6 | 0.00 | 0.00 | 0.00 | 77 | 1008.7 |
| 20260507110516 | 61 | 43 | 7.8 | 14.8 | 0.00 | 0.00 | 0.00 | 78 | 1008.7 |
| 20260507110043 | 61 | 35 | 7.8 | 15.6 | 0.00 | 0.00 | 0.00 | 77 | 1008.9 |
| 20260507105531 | 61 | 17 | 8.7 | 15.6 | 0.00 | 0.00 | 0.00 | 77 | 1008.9 |
| 20260507105018 | 61 | 36 | 7.8 | 12.2 | 0.00 | 0.00 | 0.00 | 78 | 1009.0 |
| 20260507104519 | 61 | 38 | 6.1 | 14.8 | 0.00 | 0.00 | 0.00 | 79 | 1009.1 |
| 20260507104027 | 61 | 41 | 8.7 | 14.8 | 0.00 | 0.00 | 0.00 | 79 | 1009.1 |
| 20260507103515 | 60 | 32 | 8.7 | 14.8 | 0.00 | 0.00 | 0.00 | 79 | 1009.2 |
| 20260507103020 | 60 | 53 | 7.8 | 13.0 | 0.00 | 0.00 | 0.00 | 79 | 1009.3 |
| 20260507102509 | 60 | 52 | 5.2 | 13.0 | 0.00 | 0.00 | 0.00 | 81 | 1009.2 |
| 20260507102014 | 60 | 24 | 7.8 | 13.0 | 0.00 | 0.00 | 0.00 | 82 | 1009.2 |
| 20260507101522 | 60 | 40 | 7.8 | 13.0 | 0.00 | 0.00 | 0.00 | 81 | 1009.2 |
| 20260507101011 | 60 | 19 | 7.8 | 13.9 | 0.00 | 0.00 | 0.00 | 81 | 1009.3 |
| 20260507100518 | 60 | 34 | 7.0 | 13.9 | 0.00 | 0.00 | 0.00 | 81 | 1009.3 |
| 20260507100046 | 60 | 30 | 7.8 | 13.0 | 0.00 | 0.00 | 0.00 | 82 | 1009.4 |
| 20260507095514 | 59 | 29 | 7.0 | 13.0 | 0.00 | 0.00 | 0.00 | 82 | 1009.4 |
| 20260507095021 | 59 | 24 | 6.1 | 12.2 | 0.00 | 0.00 | 0.00 | 81 | 1009.4 |
| 20260507094509 | 60 | 42 | 7.8 | 12.2 | 0.00 | 0.00 | 0.00 | 80 | 1009.6 |
| 20260507094015 | 60 | 24 | 8.7 | 12.2 | 0.00 | 0.00 | 0.00 | 79 | 1009.5 |
| 20260507093523 | 61 | 40 | 7.0 | 11.3 | 0.00 | 0.00 | 0.00 | 79 | 1009.5 |
| 20260507093011 | 61 | 9 | 6.1 | 10.4 | 0.00 | 0.00 | 0.00 | 78 | 1009.5 |
| 20260507092520 | 61 | 49 | 5.2 | 12.2 | 0.00 | 0.00 | 0.00 | 79 | 1009.6 |
| 20260507092046 | 60 | 48 | 4.3 | 12.2 | 0.00 | 0.00 | 0.00 | 79 | 1009.5 |
| 20260507091514 | 60 | 54 | 6.1 | 11.3 | 0.00 | 0.00 | 0.00 | 77 | 1009.6 |
| 20260507091020 | 60 | 53 | 5.2 | 10.4 | 0.00 | 0.00 | 0.00 | 78 | 1009.4 |
| 20260507090512 | 61 | 39 | 7.0 | 10.4 | 0.00 | 0.00 | 0.00 | 76 | 1009.5 |
| 20260507090020 | 60 | 41 | 2.6 | 9.6 | 0.00 | 0.00 | 0.00 | 79 | 1009.4 |
| 20260507085528 | 60 | 50 | 5.2 | 9.6 | 0.00 | 0.00 | 0.00 | 78 | 1009.4 |
| 20260507085016 | 60 | 40 | 4.3 | 8.7 | 0.00 | 0.00 | 0.00 | 79 | 1009.5 |
| 20260507084545 | 60 | 53 | 4.3 | 8.7 | 0.00 | 0.00 | 0.00 | 79 | 1009.6 |
| 20260507084013 | 60 | 46 | 3.5 | 10.4 | 0.00 | 0.00 | 0.00 | 80 | 1009.7 |
| 20260507083520 | 60 | 67 | 3.5 | 10.4 | 0.00 | 0.00 | 0.00 | 82 | 1009.8 |
| 20260507083028 | 60 | 49 | 6.1 | 10.4 | 0.00 | 0.00 | 0.00 | 79 | 1009.7 |
| 20260507082517 | 60 | 80 | 4.3 | 8.7 | 0.00 | 0.00 | 0.00 | 79 | 1009.8 |
| 20260507082025 | 60 | 27 | 4.3 | 7.8 | 0.00 | 0.00 | 0.00 | 80 | 1009.8 |
| 20260507081513 | 60 | 19 | 2.6 | 4.3 | 0.00 | 0.00 | 0.00 | 82 | 1009.8 |
| 20260507081020 | 59 | 355 | 0.0 | 0.9 | 0.00 | 0.00 | 0.00 | 84 | 1009.9 |
| 20260507080528 | 58 | 355 | 0.0 | 0.9 | 0.00 | 0.00 | 0.00 | 85 | 1009.8 |
| 20260507080016 | 58 | 355 | 0.0 | 0.0 | 0.00 | 0.00 | 0.00 | 86 | 1010.0 |
| 20260507075525 | 57 | 355 | 0.0 | 0.9 | 0.00 | 0.00 | 0.00 | 88 | 1009.9 |
| 20260507075033 | 56 | 355 | 0.0 | 1.7 | 0.00 | 0.00 | 0.00 | 90 | 1010.0 |
| 20260507074541 | 56 | 355 | 0.0 | 1.7 | 0.00 | 0.00 | 0.00 | 91 | 1010.0 |
| 20260507074028 | 56 | 355 | 0.0 | 2.6 | 0.00 | 0.00 | 0.00 | 92 | 1010.2 |
| 20260507073516 | 55 | 355 | 0.0 | 2.6 | 0.00 | 0.00 | 0.00 | 93 | 1010.1 |
| 20260507073021 | 55 | 355 | 0.0 | 2.6 | 0.00 | 0.00 | 0.00 | 95 | 1010.1 |
| 20260507072510 | 55 | 355 | 0.0 | 0.0 | 0.00 | 0.00 | 0.00 | 95 | 1010.1 |
| 20260507072017 | 54 | 355 | 0.0 | 0.9 | 0.00 | 0.00 | 0.00 | 96 | 1010.1 |
| 20260507071525 | 54 | 355 | 0.0 | 0.0 | 0.00 | 0.00 | 0.00 | 97 | 1010.0 |
| 20260507071014 | 54 | 355 | 0.0 | 0.0 | 0.00 | 0.00 | 0.00 | 97 | 1010.1 |
| 20260507070542 | 53 | 355 | 0.0 | 0.0 | 0.00 | 0.00 | 0.00 | 97 | 1010.1 |
| 20260507070028 | 53 | 355 | 0.0 | 2.6 | 0.00 | 0.00 | 0.00 | 98 | 1010.1 |
| 20260507065516 | 53 | 355 | 0.0 | 1.7 | 0.00 | 0.00 | 0.00 | 98 | 1010.1 |
| 20260507065024 | 52 | 355 | 0.0 | 0.0 | 0.00 | 0.00 | 0.00 | 98 | 1010.1 |
| 20260507064513 | 52 | 355 | 0.0 | 0.0 | 0.00 | 0.00 | 0.00 | 98 | 1010.1 |
| 20260507064041 | 51 | 355 | 0.0 | 0.9 | 0.00 | 0.00 | 0.00 | 98 | 1010.1 |
| 20260507063508 | 51 | 355 | 0.0 | 0.9 | 0.00 | 0.00 | 0.00 | 98 | 1010.2 |
| 20260507063016 | 51 | 31 | 0.0 | 0.0 | 0.00 | 0.00 | 0.00 | 98 | 1010.3 |
| 20260507062545 | 51 | 31 | 0.0 | 0.0 | 0.00 | 0.00 | 0.00 | 97 | 1010.3 |
| 20260507062013 | 51 | 31 | 0.0 | 0.0 | 0.00 | 0.00 | 0.00 | 97 | 1010.2 |
| 20260507061521 | 50 | 31 | 0.0 | 1.7 | 0.00 | 0.00 | 0.00 | 97 | 1010.2 |
| 20260507061009 | 50 | 31 | 0.0 | 2.6 | 0.00 | 0.00 | 0.00 | 97 | 1010.1 |
| 20260507060518 | 50 | 31 | 0.0 | 2.6 | 0.00 | 0.00 | 0.00 | 97 | 1010.1 |
| 20260507060025 | 50 | 31 | 0.0 | 0.9 | 0.00 | 0.00 | 0.00 | 97 | 1010.1 |
| 20260507055513 | 50 | 31 | 0.0 | 0.0 | 0.00 | 0.00 | 0.00 | 96 | 1010.1 |
| 20260507055022 | 50 | 31 | 0.0 | 0.0 | 0.00 | 0.00 | 0.00 | 96 | 1010.2 |
| 20260507054510 | 49 | 31 | 0.0 | 0.0 | 0.00 | 0.00 | 0.00 | 96 | 1010.1 |
| 20260507054015 | 49 | 31 | 0.0 | 0.0 | 0.00 | 0.00 | 0.00 | 96 | 1010.0 |
| 20260507053523 | 50 | 31 | 0.0 | 0.0 | 0.00 | 0.00 | 0.00 | 96 | 1009.9 |
| 20260507053012 | 50 | 31 | 0.0 | 0.0 | 0.00 | 0.00 | 0.00 | 95 | 1010.0 |
| 20260507052542 | 50 | 31 | 0.0 | 0.0 | 0.00 | 0.00 | 0.00 | 95 | 1010.0 |
| 20260507052028 | 50 | 31 | 0.0 | 0.0 | 0.00 | 0.00 | 0.00 | 95 | 1010.0 |
| 20260507051517 | 50 | 31 | 0.0 | 0.0 | 0.00 | 0.00 | 0.00 | 95 | 1010.0 |
| 20260507051024 | 50 | 31 | 0.0 | 0.0 | 0.00 | 0.00 | 0.00 | 95 | 1010.1 |
| 20260507050512 | 50 | 31 | 0.0 | 0.0 | 0.00 | 0.00 | 0.00 | 95 | 1010.0 |
| 20260507050021 | 50 | 31 | 0.0 | 0.0 | 0.00 | 0.00 | 0.00 | 95 | 1010.1 |
| 20260507045509 | 50 | 31 | 0.0 | 0.0 | 0.00 | 0.00 | 0.00 | 95 | 1010.0 |
| 20260507045014 | 50 | 31 | 0.0 | 0.0 | 0.00 | 0.00 | 0.00 | 95 | 1010.1 |
| 20260507044523 | 51 | 31 | 0.0 | 0.0 | 0.00 | 0.00 | 0.00 | 95 | 1010.1 |
| 20260507044011 | 51 | 31 | 0.0 | 0.0 | 0.00 | 0.00 | 0.00 | 95 | 1010.1 |
| 20260507043540 | 51 | 31 | 0.0 | 0.0 | 0.00 | 0.00 | 0.00 | 95 | 1010.1 |
| 20260507043048 | 51 | 31 | 0.0 | 0.0 | 0.00 | 0.00 | 0.00 | 95 | 1010.1 |
| 20260507042515 | 51 | 31 | 0.0 | 0.0 | 0.00 | 0.00 | 0.00 | 95 | 1010.2 |
| 20260507042024 | 51 | 31 | 0.0 | 0.0 | 0.00 | 0.00 | 0.00 | 95 | 1010.2 |
| 20260507041510 | 51 | 31 | 0.0 | 0.0 | 0.00 | 0.00 | 0.00 | 95 | 1010.2 |
| 20260507041015 | 51 | 31 | 0.0 | 0.0 | 0.00 | 0.00 | 0.00 | 95 | 1010.2 |
| 20260507040544 | 52 | 31 | 0.0 | 0.0 | 0.00 | 0.00 | 0.00 | 95 | 1010.1 |
| 20260507040010 | 52 | 31 | 0.0 | 0.0 | 0.00 | 0.00 | 0.00 | 95 | 1010.3 |
| 20260507035518 | 52 | 31 | 0.0 | 0.0 | 0.00 | 0.00 | 0.00 | 95 | 1010.3 |
| 20260507035027 | 52 | 31 | 0.0 | 1.7 | 0.00 | 0.00 | 0.00 | 95 | 1010.3 |
| 20260507034536 | 52 | 31 | 0.0 | 1.7 | 0.00 | 0.00 | 0.00 | 95 | 1010.3 |
| 20260507034023 | 52 | 31 | 0.0 | 1.7 | 0.00 | 0.00 | 0.00 | 95 | 1010.4 |
| 20260507033531 | 52 | 31 | 0.0 | 0.0 | 0.00 | 0.00 | 0.00 | 95 | 1010.3 |
| 20260507033038 | 52 | 31 | 0.0 | 0.0 | 0.00 | 0.00 | 0.00 | 95 | 1010.3 |
| 20260507032546 | 52 | 31 | 0.0 | 0.0 | 0.00 | 0.00 | 0.00 | 95 | 1010.4 |
| 20260507032013 | 52 | 31 | 0.0 | 0.0 | 0.00 | 0.00 | 0.00 | 95 | 1010.4 |
| 20260507031522 | 52 | 31 | 0.0 | 0.0 | 0.00 | 0.00 | 0.00 | 95 | 1010.4 |
| 20260507031010 | 52 | 31 | 0.0 | 0.0 | 0.00 | 0.00 | 0.00 | 95 | 1010.5 |
| 20260507030516 | 52 | 31 | 0.0 | 0.0 | 0.00 | 0.00 | 0.00 | 95 | 1010.5 |
| 20260507030044 | 52 | 31 | 0.0 | 0.0 | 0.00 | 0.04 | 0.00 | 94 | 1010.6 |
| 20260507025531 | 52 | 31 | 0.0 | 0.0 | 0.00 | 0.04 | 0.00 | 94 | 1010.6 |
| 20260507025014 | 52 | 31 | 0.0 | 0.0 | 0.00 | 0.04 | 0.00 | 94 | 1010.6 |
| 20260507024523 | 52 | 31 | 0.0 | 0.0 | 0.00 | 0.04 | 0.00 | 94 | 1010.6 |
| 20260507024012 | 52 | 31 | 0.0 | 0.0 | 0.00 | 0.04 | 0.00 | 94 | 1010.6 |
| 20260507023520 | 52 | 31 | 0.0 | 0.0 | 0.00 | 0.04 | 0.00 | 94 | 1010.7 |
| 20260507023028 | 52 | 31 | 0.0 | 0.0 | 0.00 | 0.04 | 0.00 | 94 | 1010.7 |
| 20260507022516 | 52 | 31 | 0.0 | 0.0 | 0.00 | 0.04 | 0.00 | 94 | 1010.7 |
| 20260507022024 | 52 | 31 | 0.0 | 0.0 | 0.00 | 0.04 | 0.00 | 94 | 1010.6 |
| 20260507021512 | 52 | 31 | 0.0 | 0.0 | 0.00 | 0.04 | 0.00 | 93 | 1010.8 |
| 20260507021019 | 52 | 31 | 0.0 | 0.0 | 0.00 | 0.04 | 0.00 | 93 | 1010.8 |
| 20260507020512 | 52 | 31 | 0.0 | 0.0 | 0.00 | 0.04 | 0.00 | 93 | 1010.9 |
| 20260507020020 | 52 | 31 | 0.0 | 0.0 | 0.00 | 0.04 | 0.00 | 93 | 1010.9 |
| 20260507015508 | 52 | 31 | 0.0 | 0.0 | 0.00 | 0.04 | 0.00 | 93 | 1010.9 |
| 20260507015016 | 52 | 31 | 0.0 | 0.0 | 0.00 | 0.04 | 0.00 | 93 | 1010.9 |
| 20260507014524 | 52 | 31 | 0.0 | 0.0 | 0.00 | 0.04 | 0.00 | 93 | 1010.9 |
| 20260507014012 | 52 | 31 | 0.0 | 0.0 | 0.00 | 0.04 | 0.00 | 93 | 1011.0 |
| 20260507013542 | 52 | 31 | 0.0 | 0.0 | 0.00 | 0.04 | 0.00 | 92 | 1011.0 |
| 20260507013009 | 52 | 31 | 0.0 | 0.0 | 0.00 | 0.04 | 0.00 | 92 | 1011.0 |
| 20260507012518 | 53 | 31 | 0.0 | 0.0 | 0.00 | 0.04 | 0.00 | 92 | 1011.0 |
| 20260507012026 | 53 | 31 | 0.0 | 0.0 | 0.00 | 0.04 | 0.00 | 92 | 1011.1 |
| 20260507011514 | 53 | 31 | 0.0 | 0.0 | 0.00 | 0.04 | 0.00 | 92 | 1011.1 |
| 20260507011019 | 53 | 31 | 0.0 | 0.0 | 0.00 | 0.04 | 0.00 | 92 | 1011.1 |
| 20260507010528 | 53 | 31 | 0.0 | 0.0 | 0.00 | 0.04 | 0.00 | 92 | 1011.2 |
| 20260507010015 | 53 | 31 | 0.0 | 0.0 | 0.00 | 0.04 | 0.00 | 92 | 1011.2 |
| 20260507005523 | 53 | 31 | 0.0 | 0.0 | 0.00 | 0.04 | 0.00 | 92 | 1011.3 |
| 20260507005011 | 53 | 31 | 0.0 | 0.0 | 0.00 | 0.04 | 0.00 | 92 | 1011.3 |
| 20260507004520 | 53 | 31 | 0.0 | 0.0 | 0.00 | 0.04 | 0.00 | 92 | 1011.3 |
| 20260507004028 | 53 | 31 | 0.0 | 0.0 | 0.00 | 0.04 | 0.00 | 92 | 1011.4 |
| 20260507003516 | 53 | 31 | 0.0 | 0.0 | 0.00 | 0.04 | 0.00 | 92 | 1011.4 |
| 20260507003025 | 54 | 31 | 0.0 | 0.0 | 0.00 | 0.04 | 0.00 | 92 | 1011.5 |
| 20260507002514 | 54 | 31 | 0.0 | 0.0 | 0.00 | 0.04 | 0.00 | 91 | 1011.7 |
| 20260507002022 | 54 | 31 | 0.0 | 0.0 | 0.00 | 0.04 | 0.00 | 91 | 1011.7 |
| 20260507001510 | 54 | 31 | 0.0 | 0.0 | 0.00 | 0.04 | 0.00 | 91 | 1011.7 |
| 20260507001016 | 54 | 31 | 0.0 | 0.0 | 0.00 | 0.04 | 0.00 | 91 | 1011.7 |
| 20260507000524 | 54 | 31 | 0.0 | 0.0 | 0.00 | 0.04 | 0.00 | 90 | 1011.6 |
| 20260507000012 | 54 | 31 | 0.0 | 0.0 | 0.00 | 0.04 | 0.01 | 90 | 1011.7 |
| 20260506235521 | 54 | 31 | 0.0 | 0.0 | 0.00 | 0.04 | 0.01 | 90 | 1011.8 |
| 20260506235028 | 54 | 31 | 0.0 | 0.0 | 0.00 | 0.04 | 0.01 | 90 | 1011.9 |
| 20260506234515 | 54 | 31 | 0.0 | 0.0 | 0.00 | 0.04 | 0.01 | 90 | 1012.0 |
| 20260506234044 | 55 | 31 | 0.0 | 0.0 | 0.00 | 0.04 | 0.01 | 90 | 1012.0 |
| 20260506233531 | 55 | 31 | 0.0 | 0.0 | 0.00 | 0.04 | 0.01 | 90 | 1012.0 |
| 20260506233016 | 55 | 31 | 0.0 | 0.0 | 0.00 | 0.04 | 0.01 | 90 | 1012.1 |
| 20260506232524 | 55 | 31 | 0.0 | 0.0 | 0.00 | 0.04 | 0.01 | 90 | 1012.1 |
| 20260506232012 | 55 | 31 | 0.0 | 0.0 | 0.00 | 0.04 | 0.01 | 90 | 1012.0 |
| 20260506231520 | 55 | 31 | 0.0 | 0.0 | 0.00 | 0.04 | 0.01 | 90 | 1012.0 |
| 20260506231048 | 55 | 31 | 0.0 | 0.0 | 0.00 | 0.04 | 0.01 | 90 | 1012.0 |
| 20260506230516 | 55 | 31 | 0.0 | 0.0 | 0.00 | 0.04 | 0.01 | 90 | 1011.9 |
| 20260506230023 | 55 | 31 | 0.0 | 0.0 | 0.00 | 0.08 | 0.01 | 90 | 1012.0 |
| 20260506225511 | 56 | 31 | 0.0 | 0.0 | 0.00 | 0.08 | 0.01 | 90 | 1012.0 |
| 20260506225019 | 55 | 31 | 0.0 | 0.0 | 0.00 | 0.08 | 0.01 | 90 | 1012.0 |
| 20260506224526 | 55 | 31 | 0.0 | 0.0 | 0.00 | 0.08 | 0.01 | 90 | 1011.9 |
| 20260506224013 | 55 | 31 | 0.0 | 0.0 | 0.00 | 0.08 | 0.01 | 90 | 1012.0 |
| 20260506223521 | 55 | 31 | 0.0 | 0.0 | 0.00 | 0.08 | 0.01 | 90 | 1012.1 |
| 20260506223029 | 55 | 31 | 0.0 | 0.0 | 0.00 | 0.08 | 0.01 | 90 | 1012.2 |
| 20260506222516 | 56 | 31 | 0.0 | 0.0 | 0.00 | 0.08 | 0.01 | 89 | 1012.2 |
| 20260506222024 | 56 | 31 | 0.0 | 0.0 | 0.00 | 0.08 | 0.01 | 89 | 1012.3 |
| 20260506221512 | 56 | 31 | 0.0 | 0.0 | 0.00 | 0.08 | 0.01 | 89 | 1012.4 |
| 20260506221018 | 56 | 31 | 0.0 | 0.0 | 0.00 | 0.08 | 0.01 | 89 | 1012.5 |
| 20260506220525 | 56 | 31 | 0.0 | 0.0 | 0.00 | 0.08 | 0.01 | 89 | 1012.5 |
| 20260506220014 | 56 | 31 | 0.0 | 0.0 | 0.00 | 0.16 | 0.01 | 89 | 1012.5 |
| 20260506215522 | 56 | 31 | 0.0 | 0.0 | 0.00 | 0.16 | 0.01 | 89 | 1012.6 |
| 20260506215010 | 56 | 31 | 0.0 | 0.0 | 0.00 | 0.16 | 0.01 | 89 | 1012.6 |
| 20260506214539 | 56 | 31 | 0.0 | 0.0 | 0.00 | 0.16 | 0.01 | 89 | 1012.6 |
| 20260506214026 | 56 | 31 | 0.0 | 0.0 | 0.00 | 0.16 | 0.01 | 89 | 1012.6 |
| 20260506213534 | 56 | 31 | 0.0 | 0.0 | 0.00 | 0.16 | 0.01 | 89 | 1012.5 |
| 20260506213022 | 56 | 31 | 0.0 | 0.0 | 0.00 | 0.16 | 0.01 | 88 | 1012.5 |
| 20260506212510 | 56 | 31 | 0.0 | 0.0 | 0.00 | 0.16 | 0.01 | 88 | 1012.4 |
| 20260506212017 | 57 | 31 | 0.0 | 0.0 | 0.00 | 0.16 | 0.01 | 87 | 1012.5 |
| 20260506211546 | 57 | 31 | 0.0 | 0.0 | 0.00 | 0.16 | 0.01 | 87 | 1012.5 |
| 20260506211013 | 57 | 31 | 0.0 | 0.0 | 0.00 | 0.16 | 0.01 | 86 | 1012.6 |
| 20260506210521 | 57 | 31 | 0.0 | 0.0 | 0.00 | 0.16 | 0.01 | 85 | 1012.6 |
| 20260506210047 | 57 | 31 | 0.0 | 0.0 | 0.00 | 0.16 | 0.01 | 84 | 1012.5 |
| 20260506205514 | 57 | 31 | 0.0 | 0.0 | 0.00 | 0.16 | 0.01 | 85 | 1012.5 |
| 20260506205022 | 57 | 31 | 0.0 | 0.0 | 0.00 | 0.16 | 0.01 | 85 | 1012.6 |
| 20260506204514 | 57 | 31 | 0.0 | 0.0 | 0.00 | 0.16 | 0.01 | 85 | 1012.6 |
| 20260506204039 | 57 | 31 | 0.0 | 0.0 | 0.00 | 0.16 | 0.01 | 85 | 1012.5 |
| 20260506203525 | 57 | 31 | 0.0 | 0.0 | 0.00 | 0.16 | 0.01 | 85 | 1012.5 |
| 20260506203016 | 57 | 31 | 0.0 | 0.0 | 0.00 | 0.16 | 0.01 | 85 | 1012.5 |
| 20260506202524 | 57 | 31 | 0.0 | 0.0 | 0.00 | 0.16 | 0.01 | 85 | 1012.5 |
| 20260506202013 | 58 | 31 | 0.0 | 0.0 | 0.00 | 0.16 | 0.01 | 84 | 1012.5 |
| 20260506201521 | 58 | 31 | 0.0 | 0.0 | 0.00 | 0.16 | 0.01 | 84 | 1012.4 |
| 20260506201028 | 58 | 31 | 0.0 | 0.0 | 0.00 | 0.16 | 0.01 | 82 | 1012.4 |
| 20260506200537 | 58 | 31 | 0.0 | 0.0 | 0.00 | 0.16 | 0.01 | 82 | 1012.3 |
| 20260506200045 | 58 | 31 | 0.0 | 0.0 | 0.00 | 0.16 | 0.01 | 82 | 1012.4 |
| 20260506195528 | 58 | 31 | 0.0 | 0.0 | 0.00 | 0.16 | 0.01 | 82 | 1012.3 |
| 20260506195014 | 58 | 31 | 0.0 | 0.0 | 0.00 | 0.16 | 0.01 | 82 | 1012.3 |
| 20260506194518 | 58 | 31 | 0.0 | 0.0 | 0.00 | 0.16 | 0.01 | 81 | 1012.2 |
| 20260506194020 | 58 | 31 | 0.0 | 0.0 | 0.00 | 0.16 | 0.01 | 81 | 1012.3 |
| 20260506193525 | 58 | 31 | 0.0 | 0.0 | 0.00 | 0.16 | 0.01 | 81 | 1012.3 |
| 20260506193028 | 58 | 31 | 0.0 | 0.0 | 0.00 | 0.16 | 0.01 | 81 | 1012.2 |
| 20260506192512 | 58 | 31 | 0.0 | 0.0 | 0.00 | 0.16 | 0.01 | 80 | 1012.2 |
| 20260506192038 | 58 | 31 | 0.0 | 0.0 | 0.00 | 0.16 | 0.01 | 80 | 1012.2 |
| 20260506191520 | 58 | 31 | 0.0 | 2.6 | 0.00 | 0.16 | 0.01 | 80 | 1012.2 |
| 20260506191048 | 58 | 31 | 0.0 | 2.6 | 0.00 | 0.16 | 0.01 | 80 | 1012.3 |
| 20260506190546 | 58 | 31 | 0.0 | 0.9 | 0.00 | 0.16 | 0.01 | 80 | 1012.2 |
| 20260506190029 | 59 | 31 | 0.0 | 2.6 | 0.00 | 0.16 | 0.01 | 79 | 1012.2 |
| 20260506185515 | 59 | 31 | 0.9 | 2.6 | 0.00 | 0.16 | 0.01 | 80 | 1012.1 |
| 20260506185043 | 59 | 31 | 0.0 | 3.5 | 0.00 | 0.16 | 0.01 | 79 | 1012.2 |
| 20260506184527 | 59 | 31 | 2.6 | 3.5 | 0.00 | 0.16 | 0.01 | 79 | 1012.1 |
| 20260506184014 | 59 | 33 | 0.9 | 3.5 | 0.00 | 0.16 | 0.01 | 78 | 1012.1 |
| 20260506183520 | 59 | 33 | 0.9 | 4.3 | 0.00 | 0.16 | 0.01 | 78 | 1012.0 |
| 20260506183025 | 59 | 22 | 0.9 | 4.3 | 0.00 | 0.16 | 0.01 | 78 | 1012.0 |
| 20260506182513 | 59 | 22 | 1.7 | 4.3 | 0.00 | 0.16 | 0.01 | 79 | 1012.2 |
| 20260506182017 | 60 | 346 | 1.7 | 3.5 | 0.00 | 0.16 | 0.01 | 79 | 1012.2 |
| 20260506181523 | 60 | 345 | 0.0 | 3.5 | 0.00 | 0.16 | 0.01 | 79 | 1012.2 |
| 20260506181026 | 60 | 345 | 0.9 | 4.3 | 0.00 | 0.16 | 0.01 | 79 | 1012.2 |
| 20260506180511 | 60 | 345 | 2.6 | 5.2 | 0.00 | 0.16 | 0.01 | 79 | 1012.2 |
| 20260506180017 | 60 | 340 | 0.9 | 7.0 | 0.00 | 0.16 | 0.01 | 79 | 1012.2 |
| 20260506175540 | 60 | 329 | 2.6 | 7.0 | 0.00 | 0.16 | 0.01 | 79 | 1012.2 |
| 20260506175017 | 60 | 355 | 0.0 | 4.3 | 0.00 | 0.16 | 0.01 | 80 | 1012.3 |
| 20260506174519 | 60 | 5 | 1.7 | 8.7 | 0.00 | 0.16 | 0.01 | 80 | 1012.3 |
| 20260506174020 | 60 | 318 | 3.5 | 8.7 | 0.00 | 0.16 | 0.01 | 79 | 1012.3 |
| 20260506173523 | 60 | 355 | 2.6 | 7.8 | 0.00 | 0.16 | 0.01 | 80 | 1012.2 |
| 20260506173011 | 60 | 330 | 2.6 | 8.7 | 0.00 | 0.16 | 0.01 | 79 | 1012.2 |
| 20260506172514 | 61 | 15 | 4.3 | 7.8 | 0.00 | 0.16 | 0.01 | 79 | 1012.2 |
| 20260506172017 | 61 | 355 | 4.3 | 8.7 | 0.00 | 0.16 | 0.01 | 77 | 1012.2 |
| 20260506171538 | 62 | 38 | 4.3 | 8.7 | 0.00 | 0.16 | 0.01 | 77 | 1012.3 |
| 20260506171041 | 62 | 294 | 3.5 | 7.8 | 0.00 | 0.16 | 0.01 | 78 | 1012.2 |
| 20260506170522 | 62 | 315 | 3.5 | 7.8 | 0.00 | 0.16 | 0.01 | 77 | 1012.3 |
| 20260506170028 | 62 | 306 | 3.5 | 7.0 | 0.00 | 0.16 | 0.01 | 78 | 1012.3 |
| 20260506165515 | 62 | 289 | 1.7 | 7.0 | 0.00 | 0.16 | 0.01 | 77 | 1012.4 |
| 20260506165043 | 62 | 294 | 3.5 | 7.8 | 0.00 | 0.16 | 0.01 | 77 | 1012.3 |
| 20260506164510 | 62 | 288 | 2.6 | 7.8 | 0.00 | 0.16 | 0.01 | 77 | 1012.3 |
| 20260506164038 | 62 | 21 | 1.7 | 8.7 | 0.00 | 0.16 | 0.01 | 77 | 1012.2 |
| 20260506163526 | 62 | 19 | 3.5 | 9.6 | 0.00 | 0.16 | 0.01 | 77 | 1012.2 |
| 20260506163034 | 62 | 11 | 4.3 | 9.6 | 0.00 | 0.16 | 0.01 | 76 | 1012.1 |
| 20260506162541 | 62 | 350 | 1.7 | 7.8 | 0.00 | 0.16 | 0.01 | 76 | 1012.2 |
| 20260506162029 | 62 | 310 | 1.7 | 7.0 | 0.00 | 0.16 | 0.01 | 76 | 1012.2 |
| 20260506161517 | 62 | 307 | 4.3 | 7.0 | 0.00 | 0.16 | 0.01 | 75 | 1012.1 |
| 20260506161045 | 62 | 340 | 1.7 | 7.8 | 0.00 | 0.16 | 0.01 | 76 | 1012.1 |
| 20260506160532 | 62 | 281 | 2.6 | 7.8 | 0.00 | 0.16 | 0.01 | 76 | 1012.2 |
| 20260506160018 | 62 | 315 | 0.9 | 8.7 | 0.00 | 0.16 | 0.01 | 76 | 1012.1 |
| 20260506155544 | 61 | 337 | 2.6 | 8.7 | 0.00 | 0.16 | 0.01 | 75 | 1012.2 |
| 20260506155029 | 61 | 313 | 2.6 | 7.8 | 0.00 | 0.16 | 0.01 | 76 | 1012.2 |
| 20260506154516 | 61 | 316 | 4.3 | 8.7 | 0.00 | 0.16 | 0.01 | 75 | 1012.2 |
| 20260506154021 | 62 | 286 | 4.3 | 9.6 | 0.00 | 0.16 | 0.01 | 74 | 1012.2 |
| 20260506153528 | 62 | 313 | 6.1 | 9.6 | 0.00 | 0.16 | 0.01 | 73 | 1012.3 |
| 20260506153014 | 62 | 311 | 3.5 | 9.6 | 0.00 | 0.16 | 0.01 | 73 | 1012.3 |
| 20260506152522 | 62 | 277 | 3.5 | 9.6 | 0.00 | 0.16 | 0.01 | 72 | 1012.3 |
| 20260506152027 | 62 | 316 | 4.3 | 8.7 | 0.00 | 0.16 | 0.01 | 72 | 1012.4 |
| 20260506151515 | 62 | 296 | 3.5 | 9.6 | 0.00 | 0.16 | 0.01 | 73 | 1012.4 |
| 20260506151019 | 62 | 30 | 6.1 | 9.6 | 0.00 | 0.16 | 0.01 | 72 | 1012.5 |
| 20260506150525 | 62 | 292 | 4.3 | 7.8 | 0.00 | 0.16 | 0.01 | 74 | 1012.6 |